Flag for Poland Weather past 2 weeks in Poznan, Poland

Now
55 °F

Passing clouds.


Feels Like: 52 °F
Forecast: 39 / 58 °F
Wind: 13 mph from Northwest

Location: Poznan Airport

Current Time: Apr 19, 2015 at 4:42:08 PM

Latest Report: Apr 19, 2015 at 4:00 PM


Visibility: N/A

Pressure: 30.09 "Hg

Humidity: 38%

Dew point: 30 °F

Location of PoznanLocation

Historic Weather in Poznan — Graph

°F

Poznan temperature yesterday

Maximum temperature yesterday: 48 °F (at 2:00 PM)
Minimum temperature yesterday: 32 °F (at 4:00 AM)
Average temperature yesterday: 41 °F

Past Weeks' High & Low Weather Summary

 TemperatureHumidityPressure
High72 °F (Apr 11, 4:00 PM)93% (Apr 4, 10:00 PM)30.51 "Hg (Apr 4, 10:00 PM)
Low27 °F (Apr 5, 3:30 AM)27% (Apr 9, 5:00 PM)29.74 "Hg (Apr 15, 11:00 PM)
Average47 °F59%30.15 "Hg
* Reported Apr 4 3:00 PM — Apr 19 3:30 PM, Poznan, Weather by CustomWeather, © 2015

Note: Actual official high and low records may vary slightly from our data, if they occured in-between our weather recording intervals... More about our weather records

Advertising

Poznan weather history for previous 24 hours

 ConditionsComfort  
Time TempWeatherWind HumidityBarometerVisibility
3:30 PM
Sun, Apr 19
55 °FPassing clouds.16 mph38%30.12 "HgN/A
3:00 PM55 °FPassing clouds.15 mph38%30.12 "HgN/A
2:30 PM55 °FPassing clouds.13 mph38%30.12 "HgN/A
2:00 PM55 °FSunny.14 mph41%30.12 "Hg10 mi
1:30 PM54 °FPassing clouds.15 mph44%30.12 "HgN/A
1:00 PM54 °FPassing clouds.16 mph41%30.12 "HgN/A
12:30 PM55 °FPartly sunny.12 mph38%30.12 "HgN/A
12:00 PM55 °FScattered clouds.15 mph38%30.12 "HgN/A
11:30 AM54 °FPassing clouds.13 mph47%30.12 "HgN/A
11:00 AM52 °FPassing clouds.14 mph47%30.12 "HgN/A
10:30 AM52 °FSunny.16 mph47%30.15 "Hg10 mi
10:00 AM50 °FSunny.16 mph47%30.15 "Hg10 mi
9:30 AM48 °FSunny.15 mph46%30.15 "Hg10 mi
9:00 AM46 °FSunny.13 mph50%30.15 "Hg10 mi
8:30 AM41 °FPassing clouds.8 mph61%30.15 "HgN/A
8:00 AM41 °FSunny.8 mph57%30.15 "Hg10 mi
7:30 AM37 °FSunny.6 mph65%30.15 "Hg10 mi
7:00 AM36 °FSunny.3 mph70%30.15 "Hg10 mi
6:30 AM34 °FClear.3 mph70%30.15 "Hg10 mi
6:00 AM34 °FClear.5 mph70%30.15 "Hg10 mi
5:30 AM36 °FClear.5 mph65%30.15 "Hg10 mi
5:00 AM34 °FClear.3 mph70%30.15 "Hg10 mi
4:30 AM34 °FClear.3 mph70%30.15 "Hg10 mi
4:00 AM34 °FClear.2 mph75%30.15 "Hg10 mi
3:30 AM34 °FClear.2 mph70%30.15 "Hg10 mi
3:00 AM36 °FClear.2 mph70%30.15 "Hg10 mi
2:30 AM36 °FClear.6 mph70%30.15 "Hg10 mi
2:00 AM37 °FClear.3 mph65%30.15 "Hg10 mi
1:30 AM37 °FClear.3 mph65%30.15 "Hg10 mi
1:00 AM36 °FClear.3 mph65%30.15 "Hg10 mi
12:30 AM37 °FClear.6 mph65%30.18 "Hg10 mi
12:00 AM37 °FClear.6 mph65%30.18 "Hg10 mi
11:00 PM
Sat, Apr 18
39 °FClear.6 mph61%30.18 "Hg10 mi
10:30 PM39 °FClear.7 mph61%30.18 "Hg10 mi
10:00 PM41 °FClear.6 mph57%30.15 "Hg10 mi
9:30 PM43 °FClear.7 mph57%30.15 "Hg10 mi
9:00 PM43 °FClear.8 mph57%30.15 "Hg10 mi
8:30 PM45 °FSunny.7 mph53%30.15 "Hg10 mi
8:00 PM46 °FSunny.8 mph50%30.15 "Hg10 mi
7:30 PM46 °FScattered clouds.9 mph50%30.15 "HgN/A
7:00 PM48 °FSunny.12 mph46%30.15 "Hg10 mi
6:30 PM48 °FPassing clouds.10 mph43%30.15 "HgN/A
6:00 PM48 °FPassing clouds.14 mph40%30.15 "HgN/A
5:30 PM48 °FPassing clouds.9 mph46%30.15 "HgN/A
5:00 PM48 °FPassing clouds.13 mph43%30.15 "HgN/A
4:30 PM48 °FScattered clouds.14 mph46%30.15 "HgN/A
4:00 PM48 °FPassing clouds.14 mph43%30.15 "HgN/A
Weather by CustomWeather, © 2015

See weather overviewHow to use our weather pages